QPF
0.04 0.05 0.07 0.10 0.22 0.28 0.21 0.17 0.15 0.11 0.12 0.11 0.08 0.06 0.04 0.04 0.03 0.03 0.02 0.02 0.02 0.01 0.02 0.02 0.01 0.02 0.02 0.03 0.04 0.03 0.03 0.03 0.02 0.02 0.03 0.03 0.03 0.04 0.06 0.06 0.05 0.03 0.03
0.04 0.08 0.10 0.12 0.20 0.32 0.25 0.17 0.15 0.12 0.09 0.07 0.07 0.09 0.08 0.07 0.06 0.06 0.04 0.03 0.02 0.02 0.02 0.01 0.01 0.03 0.02 0.02 0.02 0.02 0.02 0.02 0.01 0.01 0.02 0.01 0.02 0.02 0.03 0.05 0.06 0.03 0.02
0.03 0.07 0.13 0.15 0.16 0.23 0.23 0.17 0.15 0.13 0.10 0.08 0.09 0.10 0.10 0.09 0.08 0.06 0.05 0.03 0.02 0.02 0.02 0.02 0.02 0.03 0.03 0.02 0.02 0.02 0.02 0.01 0.01 0.02 0.01 0.00 0.00 0.01 0.01 0.01 0.02 0.02 0.02
0.04 0.05 0.08 0.10 0.10 0.13 0.14 0.13 0.13 0.13 0.10 0.09 0.08 0.06 0.06 0.05 0.04 0.04 0.04 0.03 0.03 0.03 0.04 0.03 0.02 0.02 0.02 0.02 0.02 0.02 0.02 0.02 0.02 0.02 0.01 0.00 0.00 0.00 0.00 0.01 0.01 0.00 0.00
0.03 0.05 0.05 0.05 0.06 0.10 0.11 0.12 0.13 0.13 0.10 0.08 0.06 0.07 0.06 0.05 0.06 0.06 0.06 0.05 0.04 0.04 0.04 0.03 0.03 0.02 0.02 0.02 0.02 0.02 0.02 0.01 0.01 0.01 0.00 0.00 0.00 0.00 0.00 0.00 0.00 0.01 0.01
0.04 0.06 0.08 0.09 0.10 0.11 0.12 0.14 0.14 0.14 0.11 0.08 0.07 0.06 0.06 0.06 0.06 0.04 0.04 0.04 0.03 0.02 0.02 0.03 0.02 0.02 0.02 0.02 0.02 0.01 0.02 0.01 0.00 0.00 0.00 0.00 0.00 0.00 0.00 0.00 0.00 0.00 0.00
0.05 0.06 0.07 0.10 0.16 0.20 0.20 0.18 0.16 0.12 0.09 0.08 0.07 0.06 0.06 0.06 0.05 0.05 0.05 0.04 0.03 0.01 0.01 0.01 0.01 0.01 0.01 0.02 0.01 0.01 0.01 0.00 0.00 0.00 0.00 0.00 0.00 0.00 0.00 0.00 0.00 0.00 0.00
0.04 0.06 0.08 0.13 0.17 0.21 0.19 0.18 0.16 0.14 0.10 0.08 0.08 0.10 0.08 0.07 0.07 0.07 0.07 0.06 0.04 0.03 0.02 0.02 0.02 0.01 0.02 0.02 0.02 0.01 0.00 0.00 0.00 0.00 0.00 0.00 0.00 0.00 0.00 0.00 0.00 0.00 0.00
0.04 0.05 0.07 0.11 0.12 0.13 0.14 0.13 0.12 0.12 0.11 0.08 0.10 0.10 0.09 0.08 0.08 0.09 0.09 0.09 0.07 0.07 0.05 0.03 0.03 0.02 0.02 0.03 0.03 0.01 0.00 0.00 0.01 0.01 0.00 0.00 0.00 0.00 0.00 0.00 0.00 0.00 0.00
0.03 0.03 0.04 0.07 0.09 0.11 0.14 0.11 0.11 0.09 0.09 0.08 0.07 0.10 0.09 0.07 0.08 0.09 0.09 0.07 0.07 0.07 0.06 0.05 0.03 0.02 0.02 0.03 0.02 0.01 0.00 0.00 0.01 0.00 0.00 0.00 0.00 0.00 0.00 0.00 0.00 0.00 0.00
0.03 0.02 0.03 0.05 0.07 0.10 0.14 0.11 0.09 0.09 0.08 0.08 0.07 0.08 0.09 0.09 0.08 0.08 0.08 0.06 0.05 0.05 0.05 0.04 0.04 0.02 0.01 0.02 0.02 0.01 0.01 0.00 0.00 0.00 0.00 0.00 0.00 0.00 0.00 0.00 0.00 0.00 0.00
0.05 0.04 0.03 0.03 0.05 0.11 0.14 0.12 0.10 0.08 0.06 0.07 0.06 0.06 0.08 0.08 0.07 0.06 0.07 0.07 0.05 0.05 0.05 0.05 0.03 0.02 0.01 0.01 0.02 0.02 0.01 0.00 0.00 0.00 0.00 0.00 0.00 0.00 0.00 0.00 0.00 0.00 0.00
0.03 0.03 0.03 0.02 0.04 0.11 0.16 0.12 0.09 0.07 0.06 0.06 0.05 0.06 0.08 0.08 0.05 0.05 0.07 0.07 0.06 0.06 0.06 0.04 0.02 0.02 0.02 0.02 0.02 0.02 0.02 0.01 0.01 0.01 0.00 0.00 0.00 0.00 0.00 0.00 0.00 0.00 0.00
0.01 0.02 0.02 0.03 0.05 0.08 0.14 0.11 0.08 0.07 0.07 0.06 0.06 0.06 0.06 0.05 0.05 0.07 0.09 0.09 0.07 0.07 0.06 0.05 0.04 0.03 0.03 0.03 0.03 0.03 0.03 0.02 0.02 0.01 0.01 0.00 0.00 0.00 0.00 0.00 0.00 0.00 0.00
0.03 0.04 0.03 0.05 0.05 0.06 0.07 0.08 0.07 0.06 0.05 0.05 0.05 0.04 0.06 0.07 0.07 0.09 0.09 0.09 0.09 0.08 0.08 0.07 0.06 0.05 0.05 0.05 0.05 0.05 0.05 0.04 0.03 0.02 0.01 0.00 0.00 0.00 0.01 0.00 0.00 0.00 0.00
0.05 0.07 0.05 0.03 0.03 0.04 0.04 0.04 0.04 0.03 0.04 0.05 0.06 0.06 0.06 0.07 0.07 0.08 0.08 0.09 0.10 0.10 0.10 0.08 0.06 0.05 0.03 0.04 0.06 0.07 0.07 0.07 0.06 0.04 0.03 0.01 0.01 0.01 0.01 0.01 0.01 0.00 0.00
0.06 0.06 0.05 0.03 0.02 0.02 0.02 0.02 0.03 0.03 0.04 0.05 0.06 0.05 0.05 0.05 0.05 0.05 0.05 0.06 0.06 0.07 0.07 0.07 0.06 0.05 0.03 0.03 0.06 0.09 0.09 0.08 0.06 0.06 0.05 0.04 0.02 0.02 0.02 0.02 0.01 0.01 0.00
0.03 0.03 0.03 0.03 0.03 0.02 0.01 0.02 0.02 0.02 0.03 0.04 0.05 0.04 0.03 0.02 0.02 0.03 0.02 0.02 0.02 0.01 0.02 0.03 0.03 0.04 0.04 0.04 0.05 0.07 0.09 0.09 0.08 0.07 0.06 0.05 0.03 0.02 0.02 0.02 0.01 0.01 0.01
0.02 0.02 0.02 0.03 0.03 0.02 0.02 0.03 0.03 0.02 0.02 0.02 0.04 0.05 0.04 0.03 0.02 0.02 0.02 0.02 0.02 0.02 0.02 0.02 0.02 0.03 0.03 0.03 0.03 0.03 0.03 0.04 0.05 0.05 0.06 0.05 0.04 0.03 0.03 0.02 0.01 0.01 0.01
0.02 0.02 0.03 0.03 0.03 0.03 0.04 0.04 0.04 0.03 0.03 0.04 0.05 0.05 0.05 0.05 0.04 0.04 0.03 0.03 0.03 0.03 0.04 0.04 0.02 0.02 0.02 0.03 0.04 0.04 0.03 0.03 0.03 0.03 0.04 0.04 0.05 0.04 0.04 0.03 0.02 0.02 0.01
0.02 0.02 0.03 0.04 0.04 0.07 0.07 0.04 0.05 0.04 0.04 0.04 0.04 0.03 0.04 0.05 0.07 0.08 0.06 0.05 0.05 0.07 0.07 0.08 0.07 0.05 0.04 0.05 0.06 0.06 0.04 0.03 0.03 0.03 0.04 0.04 0.05 0.05 0.04 0.04 0.03 0.03 0.02
0.02 0.02 0.03 0.05 0.04 0.03 0.04 0.04 0.04 0.05 0.06 0.05 0.04 0.03 0.04 0.06 0.08 0.10 0.09 0.09 0.08 0.08 0.08 0.08 0.08 0.08 0.08 0.08 0.06 0.06 0.05 0.04 0.05 0.05 0.04 0.05 0.05 0.03 0.03 0.02 0.02 0.02 0.02
0.02 0.03 0.05 0.07 0.06 0.04 0.04 0.04 0.06 0.06 0.05 0.05 0.05 0.05 0.06 0.07 0.08 0.09 0.12 0.15 0.14 0.12 0.11 0.09 0.07 0.06 0.05 0.04 0.05 0.05 0.06 0.05 0.04 0.03 0.04 0.04 0.04 0.03 0.02 0.02 0.02 0.01 0.01
0.02 0.03 0.04 0.08 0.09 0.07 0.05 0.05 0.09 0.09 0.09 0.08 0.08 0.08 0.09 0.09 0.10 0.09 0.11 0.13 0.15 0.15 0.15 0.13 0.12 0.12 0.09 0.06 0.06 0.06 0.06 0.06 0.05 0.04 0.03 0.03 0.03 0.02 0.02 0.02 0.01 0.02 0.02
0.02 0.03 0.04 0.05 0.06 0.07 0.07 0.08 0.10 0.10 0.10 0.11 0.09 0.07 0.09 0.09 0.10 0.09 0.08 0.09 0.12 0.14 0.18 0.19 0.19 0.16 0.11 0.10 0.11 0.09 0.08 0.07 0.07 0.06 0.04 0.04 0.04 0.05 0.05 0.06 0.06 0.06 0.05
0.03 0.04 0.05 0.05 0.06 0.08 0.08 0.08 0.08 0.08 0.09 0.10 0.09 0.08 0.08 0.09 0.09 0.10 0.10 0.10 0.09 0.11 0.11 0.12 0.12 0.12 0.11 0.11 0.12 0.13 0.14 0.14 0.13 0.11 0.08 0.08 0.09 0.09 0.10 0.10 0.09 0.08 0.07
MSLP
1006.44 1006.79 1007.18 1007.58 1007.99 1008.39 1008.79 1009.21 1009.67 1010.17 1010.71 1011.29 1011.87 1012.44 1012.97 1013.45 1013.87 1014.23 1014.56 1014.88 1015.19 1015.52 1015.86 1016.22 1016.58 1016.93 1017.25 1017.55 1017.81 1018.05 1018.27 1018.48 1018.69 1018.88 1019.06 1019.20 1019.31 1019.36 1019.37 1019.35 1019.30 1019.26 1019.26
1006.04 1006.34 1006.69 1007.06 1007.44 1007.82 1008.23 1008.67 1009.18 1009.75 1010.38 1011.04 1011.70 1012.34 1012.90 1013.39 1013.79 1014.14 1014.44 1014.74 1015.06 1015.40 1015.79 1016.19 1016.60 1016.99 1017.33 1017.63 1017.88 1018.08 1018.27 1018.46 1018.65 1018.86 1019.07 1019.26 1019.43 1019.54 1019.60 1019.61 1019.58 1019.54 1019.50
1005.59 1005.85 1006.17 1006.52 1006.88 1007.25 1007.66 1008.13 1008.68 1009.31 1010.02 1010.77 1011.51 1012.20 1012.82 1013.32 1013.73 1014.06 1014.35 1014.64 1014.95 1015.31 1015.72 1016.16 1016.60 1017.01 1017.37 1017.65 1017.88 1018.06 1018.22 1018.38 1018.57 1018.79 1019.03 1019.27 1019.49 1019.67 1019.78 1019.82 1019.80 1019.75 1019.69
1005.15 1005.41 1005.73 1006.07 1006.42 1006.77 1007.17 1007.63 1008.20 1008.87 1009.63 1010.44 1011.25 1012.01 1012.67 1013.21 1013.63 1013.97 1014.25 1014.54 1014.85 1015.22 1015.65 1016.10 1016.57 1016.99 1017.36 1017.64 1017.86 1018.02 1018.16 1018.31 1018.49 1018.72 1018.98 1019.26 1019.53 1019.74 1019.89 1019.96 1019.95 1019.88 1019.79
1004.81 1005.10 1005.44 1005.78 1006.11 1006.44 1006.80 1007.24 1007.78 1008.45 1009.22 1010.06 1010.91 1011.71 1012.42 1013.00 1013.46 1013.81 1014.11 1014.40 1014.73 1015.11 1015.55 1016.02 1016.50 1016.94 1017.32 1017.61 1017.83 1017.99 1018.12 1018.27 1018.45 1018.68 1018.96 1019.25 1019.54 1019.78 1019.95 1020.02 1020.01 1019.93 1019.80
1004.62 1004.96 1005.33 1005.68 1005.99 1006.28 1006.58 1006.94 1007.42 1008.04 1008.78 1009.60 1010.47 1011.30 1012.04 1012.67 1013.17 1013.56 1013.89 1014.21 1014.56 1014.96 1015.41 1015.91 1016.40 1016.87 1017.26 1017.58 1017.81 1017.98 1018.12 1018.27 1018.45 1018.68 1018.95 1019.24 1019.53 1019.77 1019.94 1020.01 1019.99 1019.90 1019.76
1004.58 1004.99 1005.40 1005.76 1006.05 1006.27 1006.48 1006.74 1007.12 1007.64 1008.30 1009.08 1009.92 1010.75 1011.53 1012.20 1012.75 1013.20 1013.59 1013.96 1014.34 1014.77 1015.25 1015.77 1016.29 1016.78 1017.20 1017.54 1017.80 1017.99 1018.15 1018.30 1018.48 1018.69 1018.95 1019.22 1019.49 1019.71 1019.87 1019.94 1019.92 1019.82 1019.68
1004.67 1005.15 1005.60 1005.96 1006.21 1006.36 1006.47 1006.61 1006.86 1007.25 1007.81 1008.51 1009.30 1010.12 1010.91 1011.63 1012.24 1012.76 1013.22 1013.64 1014.08 1014.55 1015.06 1015.61 1016.15 1016.67 1017.12 1017.50 1017.79 1018.00 1018.17 1018.33 1018.50 1018.69 1018.92 1019.16 1019.39 1019.59 1019.74 1019.81 1019.80 1019.72 1019.60
1004.83 1005.36 1005.84 1006.20 1006.40 1006.48 1006.48 1006.50 1006.61 1006.88 1007.32 1007.93 1008.66 1009.45 1010.25 1011.00 1011.68 1012.27 1012.80 1013.30 1013.79 1014.31 1014.86 1015.44 1016.01 1016.55 1017.03 1017.43 1017.74 1017.98 1018.16 1018.32 1018.47 1018.64 1018.83 1019.03 1019.23 1019.41 1019.55 1019.63 1019.65 1019.61 1019.53
1004.97 1005.54 1006.03 1006.37 1006.54 1006.55 1006.47 1006.39 1006.39 1006.54 1006.87 1007.39 1008.06 1008.82 1009.62 1010.40 1011.12 1011.78 1012.38 1012.95 1013.50 1014.07 1014.66 1015.26 1015.85 1016.40 1016.90 1017.31 1017.64 1017.89 1018.08 1018.23 1018.37 1018.51 1018.66 1018.83 1019.00 1019.17 1019.31 1019.41 1019.47 1019.49 1019.47
1005.04 1005.62 1006.11 1006.43 1006.56 1006.53 1006.40 1006.25 1006.18 1006.26 1006.52 1006.97 1007.58 1008.31 1009.09 1009.88 1010.64 1011.34 1012.00 1012.62 1013.23 1013.84 1014.45 1015.06 1015.66 1016.22 1016.71 1017.13 1017.47 1017.73 1017.92 1018.06 1018.18 1018.30 1018.43 1018.57 1018.72 1018.88 1019.03 1019.17 1019.28 1019.36 1019.41
1005.02 1005.57 1006.04 1006.33 1006.45 1006.40 1006.26 1006.11 1006.02 1006.07 1006.29 1006.70 1007.27 1007.96 1008.72 1009.50 1010.26 1010.99 1011.68 1012.33 1012.97 1013.60 1014.22 1014.84 1015.43 1015.98 1016.47 1016.88 1017.22 1017.47 1017.66 1017.81 1017.92 1018.03 1018.15 1018.27 1018.42 1018.58 1018.74 1018.91 1019.06 1019.20 1019.31
1004.91 1005.42 1005.83 1006.11 1006.22 1006.19 1006.09 1005.97 1005.91 1005.98 1006.21 1006.60 1007.14 1007.79 1008.51 1009.26 1010.01 1010.73 1011.42 1012.08 1012.72 1013.35 1013.97 1014.57 1015.15 1015.68 1016.16 1016.56 1016.89 1017.15 1017.35 1017.50 1017.62 1017.73 1017.85 1017.97 1018.11 1018.27 1018.44 1018.63 1018.81 1018.98 1019.13
1004.74 1005.18 1005.55 1005.79 1005.92 1005.94 1005.90 1005.86 1005.89 1006.02 1006.28 1006.68 1007.19 1007.80 1008.47 1009.17 1009.86 1010.54 1011.20 1011.84 1012.46 1013.08 1013.68 1014.26 1014.81 1015.32 1015.78 1016.18 1016.51 1016.77 1016.99 1017.16 1017.30 1017.43 1017.56 1017.69 1017.83 1017.98 1018.15 1018.32 1018.50 1018.68 1018.83
1004.57 1004.93 1005.23 1005.45 1005.59 1005.68 1005.74 1005.81 1005.94 1006.16 1006.47 1006.89 1007.39 1007.96 1008.56 1009.18 1009.80 1010.42 1011.02 1011.61 1012.20 1012.78 1013.35 1013.90 1014.43 1014.92 1015.35 1015.74 1016.07 1016.35 1016.59 1016.79 1016.97 1017.13 1017.28 1017.42 1017.56 1017.70 1017.84 1017.99 1018.14 1018.28 1018.41
1004.43 1004.70 1004.94 1005.14 1005.30 1005.46 1005.62 1005.81 1006.06 1006.37 1006.75 1007.19 1007.67 1008.18 1008.71 1009.25 1009.78 1010.32 1010.85 1011.39 1011.92 1012.46 1013.00 1013.52 1014.01 1014.47 1014.89 1015.27 1015.60 1015.90 1016.17 1016.41 1016.63 1016.82 1017.00 1017.16 1017.29 1017.41 1017.52 1017.61 1017.70 1017.79 1017.87
1004.37 1004.55 1004.72 1004.90 1005.09 1005.30 1005.56 1005.86 1006.22 1006.62 1007.05 1007.50 1007.96 1008.42 1008.88 1009.32 1009.77 1010.22 1010.68 1011.16 1011.65 1012.14 1012.64 1013.12 1013.58 1014.01 1014.41 1014.77 1015.10 1015.41 1015.71 1015.98 1016.24 1016.47 1016.68 1016.86 1016.99 1017.09 1017.15 1017.18 1017.20 1017.22 1017.23
1004.41 1004.51 1004.62 1004.77 1004.97 1005.24 1005.57 1005.96 1006.39 1006.85 1007.32 1007.77 1008.21 1008.61 1008.99 1009.36 1009.73 1010.11 1010.51 1010.93 1011.38 1011.84 1012.30 1012.74 1013.16 1013.55 1013.91 1014.25 1014.57 1014.88 1015.19 1015.49 1015.78 1016.05 1016.28 1016.47 1016.61 1016.69 1016.72 1016.70 1016.66 1016.61 1016.56
1004.58 1004.60 1004.67 1004.78 1004.98 1005.27 1005.64 1006.07 1006.55 1007.04 1007.51 1007.95 1008.34 1008.69 1009.01 1009.32 1009.63 1009.96 1010.32 1010.71 1011.12 1011.55 1011.98 1012.39 1012.76 1013.11 1013.42 1013.72 1014.00 1014.29 1014.59 1014.90 1015.21 1015.51 1015.77 1015.99 1016.14 1016.22 1016.23 1016.18 1016.10 1016.00 1015.91
1004.88 1004.85 1004.87 1004.95 1005.13 1005.41 1005.77 1006.21 1006.68 1007.15 1007.59 1007.99 1008.33 1008.63 1008.90 1009.16 1009.44 1009.74 1010.09 1010.47 1010.87 1011.29 1011.69 1012.06 1012.39 1012.68 1012.93 1013.17 1013.41 1013.66 1013.93 1014.23 1014.55 1014.86 1015.15 1015.39 1015.57 1015.67 1015.69 1015.65 1015.56 1015.45 1015.34
1005.33 1005.27 1005.24 1005.28 1005.42 1005.65 1005.98 1006.36 1006.78 1007.19 1007.56 1007.90 1008.18 1008.42 1008.65 1008.88 1009.14 1009.45 1009.80 1010.19 1010.60 1011.01 1011.40 1011.74 1012.03 1012.26 1012.45 1012.62 1012.79 1012.98 1013.22 1013.49 1013.80 1014.13 1014.45 1014.73 1014.95 1015.10 1015.16 1015.15 1015.09 1014.99 1014.89
1005.95 1005.86 1005.79 1005.78 1005.86 1006.02 1006.26 1006.55 1006.86 1007.16 1007.44 1007.68 1007.88 1008.07 1008.25 1008.47 1008.73 1009.06 1009.43 1009.85 1010.29 1010.71 1011.10 1011.42 1011.66 1011.84 1011.97 1012.07 1012.18 1012.31 1012.50 1012.74 1013.04 1013.38 1013.73 1014.06 1014.34 1014.55 1014.68 1014.73 1014.72 1014.68 1014.62
1006.72 1006.61 1006.51 1006.45 1006.45 1006.51 1006.63 1006.79 1006.96 1007.12 1007.26 1007.38 1007.49 1007.60 1007.75 1007.95 1008.22 1008.57 1008.98 1009.44 1009.92 1010.36 1010.76 1011.07 1011.30 1011.44 1011.52 1011.56 1011.61 1011.69 1011.83 1012.06 1012.35 1012.70 1013.08 1013.46 1013.81 1014.10 1014.31 1014.45 1014.52 1014.53 1014.51
1007.62 1007.51 1007.38 1007.26 1007.17 1007.12 1007.10 1007.10 1007.10 1007.09 1007.08 1007.06 1007.05 1007.09 1007.18 1007.37 1007.65 1008.02 1008.48 1008.98 1009.49 1009.97 1010.39 1010.72 1010.94 1011.06 1011.11 1011.13 1011.14 1011.19 1011.31 1011.51 1011.81 1012.18 1012.59 1013.03 1013.45 1013.82 1014.12 1014.34 1014.48 1014.56 1014.59
1008.62 1008.51 1008.36 1008.19 1008.01 1007.84 1007.68 1007.50 1007.33 1007.14 1006.95 1006.79 1006.66 1006.61 1006.65 1006.80 1007.08 1007.48 1007.97 1008.51 1009.06 1009.59 1010.04 1010.39 1010.62 1010.76 1010.81 1010.82 1010.82 1010.87 1010.98 1011.19 1011.50 1011.89 1012.35 1012.84 1013.32 1013.76 1014.14 1014.43 1014.64 1014.77 1014.84
1009.65 1009.55 1009.38 1009.17 1008.93 1008.65 1008.35 1008.02 1007.67 1007.31 1006.96 1006.65 1006.41 1006.27 1006.25 1006.38 1006.65 1007.05 1007.56 1008.13 1008.72 1009.28 1009.77 1010.15 1010.42 1010.58 1010.67 1010.70 1010.73 1010.79 1010.93 1011.16 1011.49 1011.91 1012.40 1012.93 1013.46 1013.95 1014.38 1014.73 1014.98 1015.15 1015.22
Thickness
5782 5778 5775 5772 5767 5761 5758 5755 5751 5749 5746 5742 5740 5738 5737 5737 5736 5736 5736 5736 5735 5734 5733 5732 5731 5730 5729 5728 5727 5725 5723 5720 5720 5718 5715 5716 5717 5717 5717 5717 5717 5716 5715
5777 5776 5773 5770 5767 5761 5757 5754 5751 5749 5747 5744 5742 5740 5738 5736 5735 5735 5734 5734 5734 5734 5732 5732 5731 5729 5728 5727 5726 5725 5721 5720 5720 5716 5712 5708 5710 5714 5717 5716 5716 5715 5715
5778 5776 5773 5770 5765 5760 5757 5755 5751 5749 5746 5744 5740 5737 5734 5733 5732 5732 5732 5733 5733 5733 5732 5731 5730 5729 5728 5726 5725 5724 5722 5719 5718 5718 5714 5708 5705 5708 5712 5714 5714 5714 5714
5779 5775 5773 5769 5766 5763 5759 5756 5751 5749 5746 5743 5739 5737 5734 5732 5733 5733 5732 5732 5732 5732 5731 5730 5729 5728 5727 5726 5725 5725 5724 5721 5717 5717 5717 5715 5714 5708 5707 5710 5712 5713 5713
5781 5778 5775 5773 5769 5764 5760 5756 5752 5749 5746 5744 5741 5738 5736 5734 5733 5732 5730 5730 5730 5730 5730 5729 5728 5727 5727 5726 5725 5724 5724 5723 5720 5718 5716 5714 5713 5712 5708 5705 5708 5710 5712
5782 5779 5776 5772 5767 5764 5760 5756 5752 5749 5747 5745 5742 5739 5736 5734 5731 5730 5728 5728 5728 5728 5728 5728 5727 5727 5726 5725 5725 5724 5724 5723 5722 5720 5719 5717 5714 5712 5710 5707 5706 5707 5709
5780 5777 5774 5769 5765 5762 5760 5756 5752 5748 5746 5744 5742 5740 5738 5735 5734 5732 5730 5728 5726 5726 5727 5727 5726 5726 5725 5725 5724 5724 5723 5723 5722 5721 5720 5720 5719 5717 5713 5710 5706 5705 5707
5779 5777 5774 5771 5766 5762 5759 5756 5752 5748 5746 5744 5742 5740 5738 5736 5735 5733 5731 5729 5728 5728 5727 5726 5726 5725 5725 5724 5724 5723 5723 5722 5722 5722 5721 5720 5719 5718 5717 5714 5709 5704 5704
5777 5777 5775 5772 5768 5763 5759 5756 5752 5748 5746 5744 5742 5739 5738 5736 5734 5732 5731 5729 5728 5727 5726 5725 5724 5724 5723 5723 5722 5722 5721 5721 5721 5721 5720 5719 5719 5718 5718 5716 5715 5709 5703
5775 5775 5774 5772 5769 5764 5760 5756 5752 5749 5746 5744 5742 5740 5737 5736 5733 5731 5729 5728 5727 5726 5724 5724 5723 5722 5722 5722 5721 5720 5720 5719 5719 5719 5718 5718 5718 5717 5716 5715 5714 5713 5709
5772 5772 5772 5771 5768 5764 5759 5754 5751 5747 5745 5743 5741 5738 5736 5734 5732 5729 5728 5727 5726 5725 5724 5723 5722 5721 5720 5720 5719 5719 5718 5718 5717 5717 5717 5716 5716 5715 5715 5714 5713 5711 5710
5769 5769 5769 5768 5765 5761 5757 5753 5750 5748 5746 5744 5741 5738 5735 5733 5731 5729 5728 5726 5725 5724 5723 5721 5720 5719 5719 5718 5718 5717 5717 5716 5715 5715 5715 5714 5714 5713 5713 5712 5711 5710 5709
5765 5763 5763 5762 5761 5758 5754 5752 5750 5748 5746 5744 5740 5737 5734 5732 5730 5728 5727 5725 5724 5723 5721 5720 5719 5718 5718 5717 5716 5716 5715 5715 5715 5714 5714 5713 5712 5711 5710 5710 5709 5709 5708
5759 5758 5756 5756 5756 5754 5752 5750 5748 5746 5745 5742 5739 5736 5734 5732 5730 5729 5727 5725 5724 5722 5721 5720 5719 5718 5717 5716 5715 5714 5714 5713 5713 5713 5713 5712 5712 5711 5709 5708 5708 5706 5705
5754 5753 5751 5751 5751 5750 5748 5748 5746 5745 5743 5740 5738 5736 5734 5732 5730 5728 5726 5725 5723 5722 5721 5719 5718 5717 5716 5715 5714 5713 5712 5711 5711 5711 5711 5711 5711 5710 5709 5708 5706 5705 5702
5750 5750 5749 5748 5748 5747 5746 5745 5744 5743 5742 5739 5737 5735 5733 5730 5729 5727 5725 5723 5721 5720 5719 5718 5716 5715 5715 5715 5713 5713 5712 5711 5709 5708 5708 5709 5709 5708 5707 5707 5706 5704 5701
5747 5747 5747 5746 5746 5746 5745 5744 5743 5742 5739 5738 5736 5734 5732 5730 5728 5726 5724 5722 5720 5718 5717 5716 5715 5714 5714 5714 5713 5711 5710 5709 5708 5707 5706 5706 5707 5706 5705 5704 5703 5701 5700
5744 5745 5746 5745 5744 5744 5744 5743 5741 5739 5738 5736 5734 5733 5731 5729 5727 5725 5723 5721 5719 5718 5717 5715 5714 5713 5713 5712 5711 5709 5708 5707 5707 5706 5705 5704 5704 5703 5702 5700 5698 5697 5696
5742 5743 5744 5744 5743 5743 5742 5740 5738 5736 5735 5733 5732 5731 5730 5727 5725 5723 5722 5720 5718 5717 5716 5715 5713 5711 5711 5710 5708 5706 5704 5703 5703 5704 5703 5702 5701 5700 5698 5695 5693 5692 5691
5739 5739 5740 5741 5740 5740 5739 5737 5735 5733 5732 5732 5732 5731 5730 5727 5725 5724 5722 5721 5719 5717 5715 5713 5712 5711 5710 5709 5706 5703 5702 5700 5700 5700 5699 5699 5697 5696 5693 5691 5689 5686 5686
5734 5736 5736 5736 5736 5735 5735 5732 5731 5730 5731 5731 5730 5729 5728 5727 5726 5724 5722 5720 5717 5715 5713 5711 5710 5709 5708 5707 5704 5701 5700 5699 5697 5696 5696 5695 5694 5691 5689 5687 5685 5684 5681
5727 5729 5729 5729 5730 5731 5730 5727 5727 5729 5728 5728 5727 5726 5725 5725 5724 5721 5719 5717 5715 5712 5710 5708 5706 5705 5705 5703 5701 5699 5698 5697 5695 5694 5693 5692 5689 5687 5684 5682 5680 5677 5673
5719 5722 5723 5723 5723 5725 5725 5723 5724 5724 5724 5723 5723 5722 5722 5721 5720 5718 5716 5713 5711 5709 5707 5705 5703 5701 5701 5699 5698 5695 5694 5692 5690 5690 5688 5686 5683 5680 5678 5675 5672 5668 5665
5711 5713 5715 5715 5715 5717 5718 5719 5719 5720 5719 5718 5718 5718 5717 5716 5716 5714 5712 5710 5707 5705 5704 5702 5700 5698 5696 5695 5693 5691 5688 5685 5683 5682 5680 5677 5674 5672 5670 5667 5664 5661 5658
5703 5705 5706 5707 5708 5710 5711 5713 5714 5715 5714 5713 5712 5712 5712 5712 5710 5708 5706 5705 5704 5703 5702 5700 5698 5695 5693 5692 5690 5687 5685 5682 5680 5675 5672 5669 5666 5663 5660 5657 5654 5651 5648
5695 5696 5697 5699 5700 5702 5704 5705 5707 5708 5708 5706 5706 5706 5706 5705 5703 5701 5698 5696 5697 5696 5695 5694 5693 5692 5690 5687 5684 5681 5679 5675 5672 5667 5664 5661 5658 5655 5653 5649 5646 5642 5639